{"data":{"norad_id":65123,"intl_designator":"2025-170E","name":"GEESAT-4 05","alt_names":[],"object_type":"PAYLOAD","status":"ACTIVE","operator":null,"country":"PRC","launch_date":"2025-08-08","launch_site_code":"YSLA","launch_vehicle":null,"mission":null,"orbit_class":"UNKNOWN","rcs_meters":null,"size_class":null,"mass_kg":null,"dimensions":null,"purposes":[],"wikipedia_slug":null,"has_3d_model":false,"image_url":null,"decayed_at":null,"tle_current":{"epoch":"2026-05-25T04:21:11.537856Z","epoch_age_seconds":49658,"freshness":"FRESH","line1":"1 65123U 25170E   26145.18138354  .00001259  00000+0  18470-3 0  9992","line2":"2 65123  49.9948 234.9359 0008236 233.0631 126.9553 14.82053615 43636","mean_motion":14.82053615,"eccentricity":0.0008236,"inclination_deg":49.9948,"raan_deg":234.9359,"arg_perigee_deg":233.0631,"mean_anomaly_deg":126.9553,"bstar":0.0001847,"rev_number":4363,"period_min":97.162476810935,"perigee_km":617.08334414951,"apogee_km":628.61536887596,"semimajor_km":7000.9863565127,"source":"CELESTRAK","updated_at":"2026-05-25T13:38:05.138160Z"}}}